Montgomery, NY

3:09 PM EDT on October 18, 2019 (GMT -0400)
Orange County

Weather History for KMGJ - July, 2019

Change the Weather History Date:

Tuesday, July 16, 2019

  Actual Average (WUND) Record (WUND)
Temperature  
Mean Temperature 73 °F -  
Max Temperature 91 °F - - (-1)
Min Temperature 57 °F - - (-1)
Cooling Degree Days 8    
Growing Degree Days 23 (Base 50)    
Moisture  
Dew Point 63 °F    
Average Humidity 70    
Maximum Humidity 97    
Minimum Humidity 40    
Precipitation  
Precipitation 0.01 in - - ()
Sea Level Pressure  
Sea Level Pressure 30.03 in    
Wind  
Wind Speed 3 mph (SW)    
Max Wind Speed 14 mph    
Max Gust Speed 23 mph    
Visibility 10 miles    
Events      
Averages and records for this station are not official NWS values.
T = Trace of Precipitation, MM = Missing Value Source: NWS Daily Summary

Daily Weather History Graph

Daily Weather History Graph

Search for Another Location

Airport or City:

Astronomy

Jul. 16, 2019 Rise Set
Actual Time 5:36 AM EDT 8:28 PM EDT
Civil Twilight 5:04 AM EDT 9:01 PM EDT
Nautical Twilight 4:22 AM EDT 9:43 PM EDT
Astronomical Twilight 3:34 AM EDT 10:30 PM EDT
Moon 8:33 PM EDT (7/16) 5:12 AM EDT (7/16)
Length of Visible Light 15h 57m
Length of Day
14h 51m
Full, 100% of the Moon is Illuminated
Jul 16
Full
Jul 16
Full
Jul 24
Last Quarter
Jul 31
New
Aug 7
First Quarter

Hourly Weather History & Observations

Time (EDT) Temp. Heat Index Dew Point Humidity Pressure Visibility Wind Dir Wind Speed Gust Speed Precip Events Conditions
12:54 AM 62.1 °F - 59.0 °F 90% 30.07 in 10.0 mi Calm Calm - N/A   Clear
1:54 AM 61.0 °F - 59.0 °F 93% 30.07 in 10.0 mi Calm Calm - N/A   Clear
2:54 AM 59.0 °F - 57.9 °F 96% 30.06 in 10.0 mi Calm Calm - N/A   Clear
3:54 AM 59.0 °F - 57.0 °F 93% 30.06 in 10.0 mi Calm Calm - N/A   Clear
4:54 AM 57.9 °F - 57.0 °F 97% 30.06 in 10.0 mi Calm Calm - N/A   Clear
5:54 AM 57.9 °F - 57.0 °F 97% 30.08 in 10.0 mi Calm Calm - N/A   Clear
6:54 AM 61.0 °F - 59.0 °F 93% 30.08 in 10.0 mi Calm Calm - N/A   Clear
7:54 AM 68.0 °F - 62.1 °F 81% 30.09 in 10.0 mi Calm Calm - N/A   Clear
8:54 AM 73.0 °F - 61.0 °F 66% 30.08 in 10.0 mi Calm Calm - N/A   Clear
9:54 AM 77.0 °F - 62.1 °F 60% 30.07 in 10.0 mi South 5.8 mph - N/A   Clear
10:54 AM 81.0 °F 81.9 °F 62.1 °F 52% 30.06 in 10.0 mi SW 10.4 mph - N/A   Clear
11:54 AM 84.9 °F 85.9 °F 63.0 °F 48% 30.05 in 10.0 mi SW 9.2 mph 18.4 mph N/A   Clear
12:54 PM 86.0 °F 86.3 °F 62.1 °F 44% 30.03 in 10.0 mi SW 10.4 mph - N/A   Clear
1:54 PM 89.1 °F 89.3 °F 62.1 °F 40% 30.02 in 10.0 mi SSW 11.5 mph 17.3 mph N/A   Clear
2:54 PM 88.0 °F 89.3 °F 64.0 °F 45% 30.00 in 10.0 mi West 10.4 mph 16.1 mph N/A   Scattered Clouds
3:54 PM 89.1 °F 91.0 °F 64.9 °F 45% 29.99 in 10.0 mi SSW 10.4 mph 18.4 mph N/A   Scattered Clouds
4:54 PM 89.1 °F 91.3 °F 66.0 °F 46% 29.97 in 10.0 mi SSW 11.5 mph - N/A   Clear
5:54 PM 88.0 °F 90.3 °F 66.0 °F 48% 29.96 in 10.0 mi SSW 13.8 mph - N/A   Clear
6:54 PM 86.0 °F 88.2 °F 66.0 °F 51% 29.98 in 10.0 mi SW 11.5 mph - N/A   Clear
7:54 PM 82.9 °F 85.4 °F 66.9 °F 58% 29.98 in 10.0 mi SSW 6.9 mph - N/A   Clear
8:54 PM 78.1 °F - 66.0 °F 66% 30.02 in 10.0 mi West 6.9 mph 23.0 mph N/A   Mostly Cloudy
9:54 PM 73.0 °F - 70.0 °F 90% 30.01 in 10.0 mi Calm Calm - 0.01 in   Clear
10:54 PM 72.0 °F - 70.0 °F 93% 30.01 in 10.0 mi WSW 3.5 mph - N/A   Clear
11:54 PM 71.1 °F - 69.1 °F 93% 30.00 in 10.0 mi Calm Calm - N/A   Clear